Weather Roundup
Issued by NWS

Home | Current Version | Previous Version | Graphics & Text | Print | Product List | Glossary Off
Versions: 1 2 3 4 5 6 7 8 9 10 11 12 13 14 15 16 17 18 19 20 21 22 23 24 25 26 27 28 29 30 31 32 33 34 35 36 37 38 39 40 41 42 43 44 45 46 47 48 49 50

000
NZUS93 KARX 222259
HRRWXR

CURRENT HOURLY OBSERVATIONS ACROSS
MUCH OF THE UPPER MISSISSIPPI VALLEY
NATIONAL WEATHER SERVICE LA CROSSE WI
600 PM CDT FRI AUG 22 2014


...SOUTHEAST MINNESOTA...


CITY           SKY/WX    TMP DP  RH WIND       PRES   REMARKS
ROCHESTER      SUNNY     82  70  66 N6        29.97S
ROCHESTER/MAYO FAIR      82  66  59 W7        29.96S
WINONA         SUNNY     82  70  65 N6        29.94R
AUSTIN         SUNNY     82  72  69 N6        29.95F
ALBERT LEA     SUNNY     82  70  65 N6        29.96S
DODGE CENTER   SUNNY     81  72  74 N6        29.97S
PRESTON        MOSUNNY   82  76  81 NW5       29.97R HX  90
OWATONNA       SUNNY     82  68  61 NW6       29.96F
FARIBAULT      SUNNY     84  66  54 N7        29.97S
$$

...ELSEWHERE IN MINNESOTA...


CITY           SKY/WX    TMP DP  RH WIND       PRES   REMARKS
MINNEAPOLIS    CLOUDY    77  68  73 NW8       29.98R
INTNL FALLS    PTSUNNY   74  64  71 NE5       30.02S
DULUTH         CLOUDY    67  62  84 SE6       30.03R
RED WING       SUNNY     82  70  65 NW5       29.95R
REDWOOD FALLS  MOSUNNY   83  69  62 N5        29.97R
MANKATO        SUNNY     81  66  61 N7        29.96F
WORTHINGTON      N/A     82  70  65 NE7       30.00S
FAIRMONT       SUNNY     73  64  73 N7        29.96F
$$

...SOUTHWEST WISCONSIN...


CITY           SKY/WX    TMP DP  RH WIND       PRES   REMARKS
LA CROSSE      MOSUNNY   87  73  62 W5        29.92R HX  94
PRAIRIE DU CHI PTSUNNY   88  71  57 SW3       29.90S HX  93
BOSCOBEL       MOSUNNY   90  73  57 W3        29.91R HX  98
LONE ROCK      NOT AVBL
PLATTEVILLE    MOSUNNY   86  76  73 CALM      29.94S HX  95
FORT MC COY    MOSUNNY   85  72  65 NW6       29.93S HX  91
VIROQUA        MOCLDY    84  75  74 NW3       29.95S HX  93
WIS DELLS      SUNNY     88  68  52 CALM      29.92F HX  91
$$

...ELSEWHERE IN WISCONSIN...


CITY           SKY/WX    TMP DP  RH WIND       PRES   REMARKS
MILWAUKEE      PTSUNNY   73  69  87 E7        29.96R
MADISON        MOSUNNY   89  73  59 N6        29.92S HX  97
GREEN BAY      CLOUDY    80  73  79 E8        29.95S
EAU CLAIRE     NOT AVBL
BLACK RVR FLS  MOCLDY    84  72  66 W5        29.93R HX  90
MEDFORD        MOSUNNY   78  73  83 N9        29.96S
WAUSAU         SUNNY     82  72  71 NW6       29.95R
WIS RAPIDS     SUNNY     85  73  67 W5        29.95S HX  91
MARSHFIELD     MOSUNNY   82  72  71 CALM      29.95S
RICE LAKE      CLOUDY    74  68  82 N7        30.00R
$$

...NORTHEAST IOWA...


CITY           SKY/WX    TMP DP  RH WIND       PRES   REMARKS
WATERLOO       PTSUNNY   79  71  76 N6        29.90F
DUBUQUE        CLOUDY    83  77  82 SW5       29.94S THUNDER HX  92
DECORAH        MOSUNNY   84  75  74 CALM      29.94S HX  92
MASON CITY     MOSUNNY   85  73  67 NE6       29.96S HX  91
CHARLES CITY   PTSUNNY   84  77  79 CALM      29.95S HX  94
OELWEIN        PTSUNNY   84  79  84 NW5       29.94R HX  96
$$

...ELSEWHERE IN IOWA...


CITY           SKY/WX    TMP DP  RH WIND       PRES   REMARKS
DES MOINES     PTSUNNY   86  78  77 S3        29.91R HX  98
IOWA CITY      PTSUNNY   84  76  76 CALM      29.93R HX  93
FORT DODGE     CLOUDY    82  75  78 E3        29.94R
MARSHALLTOWN   PTSUNNY   86  76  71 S6        29.92R HX  96
CEDAR RAPIDS   PTSUNNY   84  76  76 SW6       29.92R HX  93
$$

...NORTHERN ILLINOIS...


CITY           SKY/WX    TMP DP  RH WIND       PRES   REMARKS
CHICAGO-OHARE  PTSUNNY   84  71  65 SW7       29.93R
DUPAGE         MOSUNNY   83  74  74 W9        29.94S
CHICAGO-MIDWAY PTSUNNY   85  74  69 SW10      29.93S HX  92
MOLINE         PTSUNNY   85  75  72 S5        29.92R HX  93
ROCKFORD       PTSUNNY   82  74  76 SW5       29.95S
STERLING       PTSUNNY   84  75  74 CALM      29.94R HX  92
PEORIA         SUNNY     87  74  64 SW5       29.94S HX  95
$$

NOTE: "FAIR" INDICATES FEW OR NO CLOUDS BELOW 12,000 FEET WITH NO
SIGNIFICANT WEATHER AND/OR OBSTRUCTIONS TO VISIBILITY. WIND
SPEEDS ARE IN MILES-PER-HOUR.



USA.gov is the U.S. government's official web portal to all federal, state and local government web resources and services.